Weather observations for the past three days for
Eastsound, Orcas Island Airport
Imperial (Metric)
Date Time (pdt) Wind (mph) Vis. (mi.) Weather Sky Cond. Temperature (ºF) Relative Humidity Wind Chill (°F) Heat Index (°F) Pressure Precipitation (in)
Air Dwpt 6 hour altimeter (in) sea level (mb) 1 hr 3 hr 6 hr
Max. Min.
25 12:55 Calm 9.00 Mostly Cloudy SCT040 BKN047 64.4 51.8 64% 30.23 0.0
25 12:35 Calm 9.00 Mostly Cloudy SCT037 BKN048 64.4 51.8 64% 30.22 0.0
25 12:15 Calm 10.00 Partly Cloudy SCT037 SCT047 64.4 53.6 68% 30.22 0.0
25 11:55 Calm 10.00 Fair CLR 66.2 51.8 60% 30.21 0.0
25 11:35 Vrbl 6 10.00 Fair CLR 66.2 51.8 60% 30.21 0.0
25 11:15 S 6 G 13 9.00 Partly Cloudy SCT055 64.4 51.8 64% 30.21 0.0
25 10:55 S 7 9.00 Mostly Cloudy SCT047 BKN055 64.4 51.8 64% 30.2 0.0
25 10:35 Vrbl 7 9.00 Overcast OVC047 62.6 51.8 68% 30.2 0.0
25 10:15 S 8 9.00 Mostly Cloudy BKN048 BKN060 BKN080 62.6 51.8 68% 30.19 0.0
25 09:55 S 9 10.00 Overcast BKN049 OVC060 60.8 51.8 72% 30.19 0.0
25 09:35 S 8 10.00 Overcast OVC050 60.8 51.8 72% 30.19 0.0
25 09:15 S 9 9.00 Overcast BKN050 OVC055 59 51.8 77% 30.19 0.0
25 08:55 S 9 9.00 Overcast OVC050 59 51.8 77% 30.18 0.0
25 08:35 S 10 9.00 Overcast OVC050 59 51.8 77% 30.17 0.0
25 08:15 S 9 9.00 Overcast BKN055 OVC060 59 53.6 82% 30.17 0.0
25 07:55 S 10 9.00 Overcast BKN060 BKN075 OVC085 59 53.6 82% 30.16 0.0
25 07:35 S 10 9.00 Overcast BKN060 BKN070 OVC090 59 51.8 77% 30.15 0.0
25 07:15 S 8 9.00 Overcast FEW080 OVC090 57.2 53.6 88% 30.15 0.0
25 06:55 S 10 10.00 Mostly Cloudy FEW065 FEW075 BKN090 57.2 53.6 88% 30.14 0.0
25 06:35 S 7 9.00 Overcast BKN065 BKN080 OVC090 57.2 53.6 88% 30.13 0.0
25 06:15 S 8 10.00 Mostly Cloudy SCT060 BKN075 BKN095 57.2 53.6 88% 30.13 0.0
25 05:55 S 9 10.00 Overcast BKN065 BKN075 OVC095 57.2 53.6 88% 30.13 0.0
25 05:35 S 7 10.00 Overcast BKN060 BKN075 OVC095 57.2 51.8 82% 30.13 0.0
25 05:15 S 9 10.00 Overcast SCT060 OVC065 57.2 51.8 82% 30.13 0.0
25 04:55 S 9 9.00 Mostly Cloudy SCT065 BKN100 57.2 51.8 82% 30.12 0.0
25 04:35 S 9 10.00 Mostly Cloudy SCT065 BKN095 57.2 51.8 82% 30.11 0.0
25 04:15 S 7 10.00 Mostly Cloudy SCT065 BKN090 57.2 51.8 82% 30.11 0.0
25 03:55 Calm 10.00 Overcast OVC090 57.2 51.8 82% 30.11 0.0
25 03:35 S 7 10.00 Overcast OVC090 57.2 51.8 82% 30.1 0.0
25 03:15 S 7 10.00 Partly Cloudy SCT095 57.2 51.8 82% 30.11 0.0
25 02:55 S 6 10.00 Partly Cloudy FEW040 FEW065 SCT085 57.2 51.8 82% 30.1 0.0
25 02:35 S 7 10.00 Overcast FEW040 BKN060 OVC085 57.2 51.8 82% 30.1 0.0
25 02:15 Calm 10.00 Mostly Cloudy SCT060 BKN085 57.2 50 77% 30.1 0.0
25 01:55 S 5 9.00 Mostly Cloudy FEW036 SCT050 BKN085 59 50 72% 30.09 0.0
25 01:35 S 7 10.00 Overcast SCT039 OVC055 59 50 72% 30.09 0.0
25 01:15 S 6 10.00 Overcast FEW043 BKN060 OVC075 59 50 72% 30.09 0.0
25 00:55 S 8 10.00 Overcast FEW039 FEW055 OVC070 59 50 72% 30.09 0.0
25 00:35 S 8 10.00 Overcast BKN036 BKN060 OVC070 59 51.8 77% 30.09 0.0
25 00:15 S 6 10.00 Overcast BKN036 OVC050 60.8 51.8 72% 30.08 0.0
24 23:55 Calm 10.00 Overcast FEW035 BKN041 OVC050 60.8 51.8 72% 30.08 0.0
24 23:35 S 6 10.00 Overcast SCT042 OVC050 60.8 50 68% 30.08 0.0
24 23:15 Calm 10.00 Overcast OVC046 62.6 50 64% 30.08 0.0
24 22:55 S 5 10.00 Overcast BKN042 OVC050 62.6 50 64% 30.08 0.0
24 22:35 Calm 10.00 Overcast OVC038 62.6 50 64% 30.07 0.0
24 22:15 S 5 10.00 Mostly Cloudy BKN037 62.6 50 64% 30.07 0.0
24 21:55 Calm 10.00 Fair CLR 62.6 50 64% 30.07 0.0
24 21:35 Calm 10.00 Fair CLR 62.6 50 64% 30.07 0.0
24 21:15 Calm 10.00 Fair CLR 62.6 50 64% 30.05 0.0
24 20:55 S 6 10.00 Fair CLR 62.6 50 64% 30.05 0.0
24 20:35 SW 5 10.00 Fair CLR 64.4 50 60% 30.05 0.0
24 20:15 S 7 10.00 Fair CLR 66.2 50 56% 30.04 0.0
24 19:55 S 7 10.00 Fair CLR 66.2 50 56% 30.04 0.0
24 19:35 S 6 10.00 Partly Cloudy SCT065 68 51.8 56% 30.04 0.0
24 19:15 S 8 10.00 Overcast OVC065 68 51.8 56% 30.04 0.0
24 18:55 S 7 10.00 Overcast OVC070 68 51.8 56% 30.05 0.0
24 18:35 Calm 10.00 Overcast OVC070 69.8 50 50% 30.05 0.0
24 18:15 S 7 10.00 Partly Cloudy SCT070 69.8 50 50% 30.05 0.0
24 17:55 S 8 10.00 Fair CLR 69.8 51.8 53% 30.05 0.0
24 17:35 S 9 10.00 Fair CLR 69.8 51.8 53% 30.05 0.0
24 17:15 S 9 10.00 Fair CLR 69.8 53.6 57% 30.05 0.0
24 16:55 S 7 10.00 Partly Cloudy SCT070 68 53.6 60% 30.06 0.0
24 16:35 S 8 10.00 Overcast OVC070 69.8 53.6 57% 30.06 0.0
24 16:15 S 9 10.00 Overcast OVC070 69.8 53.6 57% 30.07 0.0
24 15:55 S 10 10.00 Overcast OVC070 68 53.6 60% 30.07 0.0
24 15:35 S 9 10.00 Overcast OVC070 68 53.6 60% 30.07 0.0
24 15:15 S 9 10.00 Overcast BKN070 OVC080 68 55.4 64% 30.08 0.0
24 14:55 S 13 10.00 Mostly Cloudy BKN070 BKN080 68 57.2 69% 30.08 0.0
24 14:35 S 10 10.00 Partly Cloudy SCT070 68 55.4 64% 30.07 0.0
24 14:15 S 9 10.00 Fair CLR 68 57.2 69% 30.07 0.0
24 13:55 S 10 10.00 Fair CLR 68 55.4 64% 30.08 0.0
24 13:35 S 9 G 15 10.00 Fair CLR 66.2 55.4 68% 30.08 0.0
24 13:15 S 14 10.00 Fair CLR 66.2 55.4 68% 30.07 0.0
24 12:55 S 9 G 17 10.00 Fair CLR 64.4 55.4 73% 30.08 0.0
24 12:35 S 10 10.00 Fair CLR 64.4 55.4 73% 30.07 0.0
24 12:15 S 12 10.00 Fair CLR 64.4 55.4 73% 30.07 0.0
24 11:55 S 10 10.00 Fair CLR 64.4 55.4 73% 30.07 0.0
24 11:35 S 10 10.00 Fair CLR 66.2 55.4 68% 30.07 0.0
24 11:15 S 10 10.00 Fair CLR 66.2 53.6 64% 30.07 0.0
24 10:55 S 10 10.00 Fair CLR 66.2 53.6 64% 30.08 0.0
24 10:35 S 9 10.00 Fair CLR 64.4 53.6 68% 30.08 0.0
24 10:15 S 12 10.00 A Few Clouds FEW080 64.4 53.6 68% 30.07 0.0
24 09:55 S 10 10.00 Fair CLR 64.4 53.6 68% 30.06 0.0
24 09:35 S 10 G 16 9.00 Fair CLR 64.4 53.6 68% 30.06 0.0
24 09:15 S 13 10.00 Fair CLR 62.6 53.6 73% 30.06 0.0
24 08:55 S 13 9.00 Fair CLR 62.6 51.8 68% 30.07 0.0
24 08:15 S 10 9.00 Fair CLR 59 51.8 77% 30.06 0.0
24 07:55 S 10 9.00 A Few Clouds FEW075 57.2 51.8 82% 30.07 0.0
24 07:35 S 9 10.00 Mostly Cloudy BKN075 57.2 51.8 82% 30.07 0.0
24 07:15 S 8 9.00 A Few Clouds FEW075 57.2 51.8 82% 30.07 0.0
24 06:55 S 12 9.00 Partly Cloudy SCT080 57.2 51.8 82% 30.06 0.0
24 06:35 S 8 10.00 Mostly Cloudy BKN080 55.4 50 82% 30.06 0.0
24 06:15 S 5 G 13 9.00 Mostly Cloudy BKN075 55.4 50 82% 30.06 0.0
24 05:55 S 8 10.00 Mostly Cloudy BKN080 55.4 50 82% 30.06 0.0
24 05:35 S 8 10.00 Fair CLR 55.4 48.2 77% 30.06 0.0
24 05:15 S 8 10.00 Fair CLR 55.4 48.2 77% 30.06 0.0
24 04:55 S 7 10.00 Fair CLR 55.4 48.2 77% 30.06 0.0
24 04:35 S 8 10.00 Fair CLR 57.2 46.4 67% 30.06 0.0
24 04:15 S 9 10.00 Fair CLR 57.2 46.4 67% 30.06 0.0
24 03:55 S 8 10.00 Fair CLR 57.2 46.4 67% 30.06 0.0
24 03:35 S 8 10.00 Partly Cloudy SCT090 57.2 46.4 67% 30.06 0.0
24 03:15 S 9 10.00 A Few Clouds FEW090 57.2 48.2 72% 30.06 0.0
24 02:55 S 3 G 12 10.00 Fair CLR 57.2 48.2 72% 30.06 0.0
24 02:35 S 8 10.00 Fair CLR 57.2 48.2 72% 30.06 0.0
24 02:15 S 6 10.00 Fair CLR 57.2 48.2 72% 30.06 0.0
24 01:55 S 7 10.00 Fair CLR 57.2 46.4 67% 30.06 0.0
24 01:35 S 7 10.00 Fair CLR 57.2 48.2 72% 30.06 0.0
24 01:15 S 8 10.00 Fair CLR 59 46.4 63% 30.06 0.0
24 00:55 S 7 10.00 A Few Clouds FEW020 FEW026 59 46.4 63% 30.06 0.0
24 00:35 S 8 10.00 Mostly Cloudy BKN018 BKN026 59 46.4 63% 30.05 0.0
24 00:15 S 9 10.00 Mostly Cloudy SCT017 BKN027 59 46.4 63% 30.05 0.0
23 23:55 S 9 10.00 Mostly Cloudy BKN025 BKN031 BKN038 59 48.2 68% 30.05 0.0
23 23:35 S 10 10.00 Mostly Cloudy SCT025 BKN032 BKN039 60.8 46.4 59% 30.05 0.0
23 23:15 S 9 G 17 10.00 Overcast FEW031 OVC039 60.8 48.2 63% 30.05 0.0
23 22:55 S 8 10.00 Overcast OVC039 60.8 48.2 63% 30.05 0.0
23 22:35 S 9 10.00 Overcast OVC038 60.8 48.2 63% 30.05 0.0
23 22:15 S 8 10.00 Overcast OVC039 62.6 48.2 60% 30.05 0.0
23 21:55 S 8 10.00 Overcast OVC041 62.6 48.2 60% 30.05 0.0
23 21:35 S 8 10.00 Mostly Cloudy BKN043 BKN048 62.6 48.2 60% 30.05 0.0
23 21:15 S 7 10.00 Fair CLR 64.4 50 60% 30.05 0.0
23 20:55 S 7 10.00 Fair CLR 64.4 50 60% 30.05 0.0
23 20:35 Calm 10.00 Fair CLR 66.2 51.8 60% 30.05 0.0
23 20:15 S 6 10.00 Fair CLR 68 48.2 49% 30.05 0.0
23 19:55 S 7 10.00 Fair CLR 68 50 53% 30.06 0.0
23 19:35 S 9 10.00 Fair CLR 69.8 48.2 46% 30.05 0.0
23 19:15 S 6 G 12 10.00 Fair CLR 69.8 48.2 46% 30.06 0.0
23 18:55 S 8 10.00 Fair CLR 69.8 48.2 46% 30.06 0.0
23 18:35 S 8 10.00 Fair CLR 69.8 50 50% 30.07 0.0
23 18:15 S 7 10.00 Fair CLR 69.8 50 50% 30.08 0.0
23 17:55 S 8 10.00 Fair CLR 71.6 51.8 50% 30.08 0.0
23 17:35 Calm 10.00 Fair CLR 68 50 53% 30.08 0.0
23 17:15 Calm 10.00 Fair CLR 68 50 53% 30.09 0.0
23 16:55 Calm 10.00 Fair CLR 66.2 50 56% 30.1 0.0
23 16:35 Calm 10.00 Fair CLR 66.2 50 56% 30.11 0.0
23 16:15 Calm 10.00 Fair CLR 66.2 50 56% 30.12 0.0
23 15:55 Calm 10.00 Fair CLR 66.2 51.8 60% 30.12 0.0
23 15:35 Calm 10.00 Fair CLR 66.2 51.8 60% 30.13 0.0
23 15:15 N 5 10.00 Fair CLR 66.2 51.8 60% 30.13 0.0
23 14:55 Calm 10.00 Fair CLR 64.4 51.8 64% 30.14 0.0
23 14:35 Calm 10.00 Fair CLR 66.2 51.8 60% 30.14 0.0
23 14:15 Calm 9.00 Fair CLR 66.2 51.8 60% 30.14 0.0
23 13:55 N 6 10.00 Fair CLR 64.4 51.8 64% 30.15 0.0
23 13:35 Calm 10.00 Fair CLR 66.2 51.8 60% 30.16 0.0
23 13:15 Calm 10.00 Fair CLR 66.2 53.6 64% 30.16 0.0
23 12:55 Calm 9.00 Fair CLR 64.4 51.8 64% 30.17 0.0
23 12:35 Calm 10.00 Fair CLR 64.4 51.8 64% 30.17 0.0
23 12:15 N 5 9.00 Fair CLR 64.4 51.8 64% 30.18 0.0
23 11:55 Vrbl 5 10.00 Fair CLR 62.6 51.8 68% 30.19 0.0
23 11:35 N 6 10.00 Fair CLR 64.4 51.8 64% 30.19 0.0
23 11:15 Vrbl 3 10.00 Fair CLR 62.6 51.8 68% 30.19 0.0
23 10:55 Calm 9.00 Fair CLR 62.6 51.8 68% 30.19 0.0
23 10:35 Calm 10.00 Fair CLR 62.6 51.8 68% 30.19 0.0
23 10:15 Vrbl 7 10.00 Fair CLR 62.6 51.8 68% 30.2 0.0
23 09:55 S 8 10.00 Fair CLR 60.8 51.8 72% 30.2 0.0
23 09:35 Calm 10.00 Fair CLR 59 50 72% 30.2 0.0
23 09:15 Calm 10.00 Fair CLR 60.8 51.8 72% 30.2 0.0
23 08:55 Calm 9.00 Fair CLR 60.8 50 68% 30.2 0.0
23 08:35 Vrbl 5 9.00 Fair CLR 60.8 51.8 72% 30.2 0.0
23 08:15 S 7 10.00 A Few Clouds FEW055 59 51.8 77% 30.19 0.0
23 07:55 S 8 9.00 Mostly Cloudy BKN055 59 51.8 77% 30.19 0.0
23 07:35 S 10 10.00 Overcast OVC050 57.2 51.8 82% 30.19 0.0
23 07:15 S 7 9.00 Overcast OVC050 57.2 51.8 82% 30.2 0.0
23 06:55 S 8 9.00 Overcast SCT035 OVC050 55.4 51.8 88% 30.2 0.0
23 06:35 Calm 9.00 Mostly Cloudy BKN034 BKN050 55.4 51.8 88% 30.19 0.0
23 06:15 S 8 9.00 A Few Clouds FEW036 55.4 51.8 88% 30.19 0.0
23 05:55 S 7 10.00 Fair CLR 55.4 51.8 88% 30.19 0.0
23 05:35 S 7 G 13 9.00 Mostly Cloudy SCT029 BKN042 55.4 51.8 88% 30.19 0.0
23 05:15 S 6 10.00 Overcast BKN029 OVC043 57.2 51.8 82% 30.19 0.0
23 04:55 S 10 10.00 Overcast OVC029 57.2 51.8 82% 30.19 0.0
23 04:35 S 9 10.00 Overcast OVC029 57.2 51.8 82% 30.19 0.0
23 04:15 S 6 10.00 Overcast BKN031 OVC043 57.2 51.8 82% 30.18 0.0
23 03:55 S 7 10.00 Overcast BKN032 BKN037 OVC046 57.2 51.8 82% 30.18 0.0
23 03:35 S 8 10.00 Overcast OVC033 57.2 51.8 82% 30.18 0.0
23 03:15 S 9 10.00 Overcast BKN033 BKN041 OVC049 57.2 51.8 82% 30.18 0.0
23 02:55 S 8 G 14 10.00 Overcast SCT036 BKN042 OVC048 57.2 51.8 82% 30.18 0.0
23 02:35 S 8 10.00 Overcast BKN036 OVC042 57.2 50 77% 30.17 0.0
23 02:15 S 8 10.00 Partly Cloudy SCT037 SCT045 55.4 50 82% 30.17 0.0
23 01:55 S 7 10.00 Fair CLR 55.4 50 82% 30.16 0.0
23 01:35 S 10 10.00 Fair CLR 57.2 50 77% 30.17 0.0
23 01:15 S 10 10.00 Fair CLR 57.2 50 77% 30.16 0.0
23 00:55 S 7 10.00 Fair CLR 57.2 50 77% 30.16 0.0
23 00:35 S 8 10.00 Fair CLR 57.2 50 77% 30.15 0.0
23 00:15 S 8 10.00 Fair CLR 57.2 50 77% 30.14 0.0
22 23:55 S 9 10.00 Fair CLR 57.2 50 77% 30.13 0.0
22 23:35 S 8 10.00 Fair CLR 57.2 50 77% 30.13 0.0
22 23:15 S 9 10.00 Fair CLR 59 50 72% 30.13 0.0
22 22:55 S 13 10.00 Fair CLR 59 50 72% 30.12 0.0
22 22:35 S 9 G 16 10.00 Fair CLR 59 50 72% 30.12 0.0
22 22:15 S 8 G 14 10.00 A Few Clouds FEW041 59 50 72% 30.11 0.0
22 21:55 S 10 10.00 Fair CLR 60.8 48.2 63% 30.11 0.0
22 21:35 S 9 10.00 Fair CLR 60.8 50 68% 30.1 0.0
22 21:15 S 7 10.00 Fair CLR 62.6 48.2 60% 30.09 0.0
22 20:55 S 8 G 14 10.00 Fair CLR 62.6 48.2 60% 30.09 0.0
22 20:35 S 9 10.00 Fair CLR 64.4 48.2 56% 30.09 0.0
22 20:15 S 9 G 16 10.00 Fair CLR 64.4 48.2 56% 30.08 0.0
22 19:55 S 12 10.00 Fair CLR 64.4 50 60% 30.08 0.0
22 19:35 S 8 10.00 Fair CLR 66.2 50 56% 30.08 0.0
22 19:15 S 12 10.00 A Few Clouds FEW060 68 50 53% 30.09 0.0
22 18:55 S 9 G 17 9.00 Fair CLR 68 50 53% 30.08 0.0
22 18:35 S 10 9.00 Fair CLR 68 51.8 56% 30.07 0.0
22 18:15 S 12 G 17 10.00 Fair CLR 69.8 51.8 53% 30.07 0.0
22 17:55 S 10 G 17 10.00 Fair CLR 69.8 51.8 53% 30.07 0.0
22 17:35 S 9 G 17 10.00 Fair CLR 69.8 53.6 57% 30.07 0.0
22 17:15 S 12 G 17 10.00 Fair CLR 69.8 53.6 57% 30.07 0.0
22 16:55 S 12 G 18 10.00 Fair CLR 69.8 53.6 57% 30.07 0.0
22 16:35 S 14 10.00 Fair CLR 68 55.4 64% 30.07 0.0
22 16:15 S 15 10.00 Fair CLR 69.8 53.6 57% 30.07 0.0
22 15:55 S 13 9.00 Fair CLR 69.8 53.6 57% 30.07 0.0
22 15:35 S 15 10.00 Fair CLR 68 55.4 64% 30.07 0.0
22 15:15 S 14 9.00 Fair CLR 68 55.4 64% 30.07 0.0
22 14:55 S 14 9.00 Partly Cloudy SCT043 68 55.4 64% 30.07 0.0
22 14:35 S 13 9.00 Overcast OVC043 68 55.4 64% 30.07 0.0
22 14:15 SE 12 10.00 Overcast OVC041 68 53.6 60% 30.08 0.0
22 13:55 SE 10 9.00 Overcast OVC041 68 53.6 60% 30.07 0.0
22 13:35 S 10 10.00 Overcast OVC037 66.2 53.6 64% 30.08 0.0
22 13:15 S 7 G 15 9.00 Overcast OVC034 64.4 55.4 73% 30.08 0.0
Date Time (pdt) Wind (mph) Vis. (mi.) Weather Sky Cond. Air Dwpt Max. Min. Relative Humidity Wind Chill (°F) Heat Index (°F) altimeter (in) sea level (mb) 1 hr 3 hr 6 hr
6 hour
Temperature (ºF) Pressure Precipitation (in)